E24CR-1 Weather Reports


Display with metric or nautical units.
time (UTC)temp
F
wind
direction
speed
MPH
gust
MPH
rain 1hr
in
rain 24hr
in
rain mn
in
humidity
%
barometer
mb
20260508130131 83 0 0.0 0.0 0.00 0.00 0.00 64 951.0
20260508125105 83 0 0.0 0.0 0.00 0.00 0.00 62 950.0
20260508124040 83 0 0.0 0.0 0.00 0.00 0.00 61 950.0
20260508123012 83 0 0.0 0.0 0.00 0.00 0.00 60 950.0
20260508121947 83 0 0.0 0.0 0.00 0.00 0.00 59 950.0
20260508120921 83 0 0.0 0.0 0.00 0.00 0.00 57 950.0
20260508115855 83 0 0.0 0.0 0.00 0.00 0.00 56 950.0
20260508114830 84 0 0.0 0.0 0.00 0.00 0.00 57 950.0
20260508113805 85 0 0.0 0.0 0.00 0.00 0.00 57 950.0
20260508112740 86 0 0.0 0.0 0.00 0.00 0.00 51 950.0
20260508111714 87 0 0.0 0.0 0.00 0.00 0.00 52 949.0
20260508110648 88 0 0.0 0.0 0.00 0.00 0.00 52 949.0
20260508105623 89 0 0.0 0.0 0.00 0.00 0.00 47 949.0
20260508104558 88 0 0.0 0.0 0.00 0.00 0.00 48 949.0
20260508103533 88 0 0.0 0.0 0.00 0.00 0.00 48 949.0
20260508102507 88 0 0.0 0.0 0.00 0.00 0.00 50 949.0
20260508101441 89 0 0.0 0.0 0.00 0.00 0.00 48 949.0
20260508100414 88 0 0.0 0.0 0.00 0.00 0.00 49 949.0
20260508095350 87 0 0.0 0.0 0.00 0.00 0.00 52 949.0
20260508094325 88 0 0.0 0.0 0.00 0.00 0.00 53 948.0
20260508093259 88 0 0.0 0.0 0.00 0.00 0.00 51 948.0
20260508092232 88 0 0.0 0.0 0.00 0.00 0.00 51 948.0
20260508091207 90 0 0.0 0.0 0.00 0.00 0.00 54 948.0
20260508090143 91 0 0.0 0.0 0.00 0.00 0.00 52 948.0
20260508085118 92 0 0.0 0.0 0.00 0.00 0.00 52 949.0
20260508084054 94 0 0.0 0.0 0.00 0.00 0.00 49 949.0
20260508083029 94 0 0.0 0.0 0.00 0.00 0.00 48 949.0
20260508082004 93 0 0.0 0.0 0.00 0.00 0.00 49 949.0
20260508080940 92 0 0.0 0.0 0.00 0.00 0.00 52 949.0
20260508075915 93 0 0.0 0.0 0.00 0.00 0.00 50 949.0
20260508074846 93 0 0.0 0.0 0.00 0.00 0.00 53 950.0
20260508073821 91 0 0.0 0.0 0.00 0.00 0.00 53 950.0
20260508072756 92 0 0.0 0.0 0.00 0.00 0.00 54 950.0
20260508072041 91 0 0.0 0.0 0.00 0.00 0.00 54 950.0
20260508071014 92 0 0.0 0.0 0.00 0.00 0.00 56 950.0
20260508065950 91 0 0.0 0.0 0.00 0.00 0.00 56 951.0
20260508064924 92 0 0.0 0.0 0.00 0.00 0.00 58 951.0
20260508063857 91 0 0.0 0.0 0.00 0.00 0.00 57 951.0
20260508062832 92 0 0.0 0.0 0.00 0.00 0.00 56 951.0
20260508061807 91 0 0.0 0.0 0.00 0.00 0.00 60 952.0
20260508060741 88 0 0.0 0.0 0.00 0.00 0.00 62 952.0
20260508055715 90 0 0.0 0.0 0.00 0.00 0.00 59 952.0
20260508054650 91 0 0.0 0.0 0.00 0.00 0.00 59 952.0
20260508053624 89 0 0.0 0.0 0.00 0.00 0.00 62 952.0
20260508052557 88 0 0.0 0.0 0.00 0.00 0.00 64 953.0
20260508051531 84 0 0.0 0.0 0.00 0.00 0.00 69 953.0
20260508050506 89 0 0.0 0.0 0.00 0.00 0.00 62 953.0
20260508045439 89 0 0.0 0.0 0.00 0.00 0.00 61 953.0
20260508044412 90 0 0.0 0.0 0.00 0.00 0.00 60 954.0
20260508043346 88 0 0.0 0.0 0.00 0.00 0.00 66 954.0
20260508042320 86 0 0.0 0.0 0.00 0.00 0.00 67 954.0
20260508041252 85 0 0.0 0.0 0.00 0.00 0.00 68 954.0
20260508040223 90 0 0.0 0.0 0.00 0.00 0.00 62 954.0
20260508035158 90 0 0.0 0.0 0.00 0.00 0.00 62 954.0
20260508034132 89 0 0.0 0.0 0.00 0.00 0.00 65 954.0
20260508033104 86 0 0.0 0.0 0.00 0.00 0.00 66 954.0
20260508032038 87 0 0.0 0.0 0.00 0.00 0.00 68 954.0
20260508031012 85 0 0.0 0.0 0.00 0.00 0.00 76 954.0
20260508025946 82 0 0.0 0.0 0.00 0.00 0.00 80 955.0
20260508024921 82 0 0.0 0.0 0.00 0.00 0.00 82 955.0
20260508023856 82 0 0.0 0.0 0.00 0.00 0.00 87 955.0
20260508022831 80 0 0.0 0.0 0.00 0.00 0.00 91 955.0
20260508021806 80 0 0.0 0.0 0.00 0.00 0.00 90 955.0
20260508020740 80 0 0.0 0.0 0.00 0.00 0.00 93 954.0
20260508015715 81 0 0.0 0.0 0.00 0.00 0.00 92 954.0
20260508014650 80 0 0.0 0.0 0.00 0.00 0.00 99 954.0
20260508013624 79 0 0.0 0.0 0.00 0.00 0.00 99 954.0
20260508012559 79 0 0.0 0.0 0.00 0.00 0.00 97 954.0
20260508011533 79 0 0.0 0.0 0.00 0.00 0.00 99 954.0
20260508010508 78 0 0.0 0.0 0.00 0.00 0.00 99 954.0
20260508005443 76 0 0.0 0.0 0.00 0.00 0.00 99 954.0
20260508004418 76 0 0.0 0.0 0.00 0.00 0.00 99 954.0
20260508003352 76 0 0.0 0.0 0.00 0.00 0.00 99 954.0
20260508002326 76 0 0.0 0.0 0.00 0.00 0.00 99 953.0
20260508001301 76 0 0.0 0.0 0.00 0.00 0.00 99 953.0
20260508000237 77 0 0.0 0.0 0.00 0.00 0.00 99 953.0
20260507235211 75 0 0.0 0.0 0.00 0.00 0.00 99 953.0
20260507234147 74 0 0.0 0.0 0.00 0.00 0.00 99 953.0
20260507233121 76 0 0.0 0.0 0.00 0.00 0.00 99 953.0
20260507232050 76 0 0.0 0.0 0.00 0.00 0.00 99 953.0
20260507231025 77 0 0.0 0.0 0.00 0.00 0.00 99 953.0
20260507230000 75 0 0.0 0.0 0.00 0.00 0.00 99 952.0
20260507224935 76 0 0.0 0.0 0.00 0.00 0.00 99 952.0
20260507223910 78 0 0.0 0.0 0.00 0.00 0.00 87 952.0
20260507222846 79 0 0.0 0.0 0.00 0.00 0.00 83 952.0
20260507221821 79 0 0.0 0.0 0.00 0.00 0.00 84 952.0
20260507220756 79 0 0.0 0.0 0.00 0.00 0.00 85 952.0
20260507215731 78 0 0.0 0.0 0.00 0.00 0.00 87 952.0
20260507214706 79 0 0.0 0.0 0.00 0.00 0.00 83 952.0
20260507213635 81 0 0.0 0.0 0.00 0.00 0.00 78 952.0
20260507212610 81 0 0.0 0.0 0.00 0.00 0.00 77 951.0
20260507211545 81 0 0.0 0.0 0.00 0.00 0.00 79 951.0
20260507210521 80 0 0.0 0.0 0.00 0.00 0.00 81 951.0
20260507205455 80 0 0.0 0.0 0.00 0.00 0.00 83 951.0
20260507204429 79 0 0.0 0.0 0.00 0.00 0.00 84 951.0
20260507203404 78 0 0.0 0.0 0.00 0.00 0.00 88 952.0
20260507202339 77 0 0.0 0.0 0.00 0.00 0.00 93 952.0
20260507201314 76 0 0.0 0.0 0.00 0.00 0.00 96 951.0
20260507200248 76 0 0.0 0.0 0.00 0.00 0.00 96 952.0
20260507195223 75 0 0.0 0.0 0.00 0.00 0.00 99 952.0
20260507194158 75 0 0.0 0.0 0.00 0.00 0.00 99 952.0
20260507193133 75 0 0.0 0.0 0.00 0.00 0.00 99 952.0
20260507192107 75 0 0.0 0.0 0.00 0.00 0.00 99 952.0
20260507191041 75 0 0.0 0.0 0.00 0.00 0.00 99 952.0
20260507190016 75 0 0.0 0.0 0.00 0.00 0.00 98 952.0
20260507184951 77 0 0.0 0.0 0.00 0.00 0.00 92 952.0
20260507183926 79 0 0.0 0.0 0.00 0.00 0.00 84 953.0
20260507182901 80 0 0.0 0.0 0.00 0.00 0.00 74 953.0
20260507181837 77 0 0.0 0.0 0.00 0.00 0.00 84 953.0
20260507180811 75 0 0.0 0.0 0.00 0.00 0.00 89 953.0
20260507175746 75 0 0.0 0.0 0.00 0.00 0.00 92 953.0
20260507174722 76 0 0.0 0.0 0.00 0.00 0.00 96 953.0
20260507173657 76 0 0.0 0.0 0.00 0.00 0.00 90 953.0
20260507172632 76 0 0.0 0.0 0.00 0.00 0.00 99 953.0
20260507171608 75 0 0.0 0.0 0.00 0.00 0.00 99 953.0
20260507170542 81 0 0.0 0.0 0.00 0.00 0.00 76 953.0
20260507165516 81 0 0.0 0.0 0.00 0.00 0.00 75 953.0
20260507164450 81 0 0.0 0.0 0.00 0.00 0.00 76 953.0
20260507163424 82 0 0.0 0.0 0.00 0.00 0.00 75 953.0
20260507162358 81 0 0.0 0.0 0.00 0.00 0.00 77 953.0
20260507161334 80 0 0.0 0.0 0.00 0.00 0.00 82 954.0
20260507160309 79 0 0.0 0.0 0.00 0.00 0.00 83 954.0
20260507155243 78 0 0.0 0.0 0.00 0.00 0.00 85 953.0
20260507154218 75 0 0.0 0.0 0.00 0.00 0.00 99 954.0
20260507153154 78 0 0.0 0.0 0.00 0.00 0.00 91 953.0
20260507152129 79 0 0.0 0.0 0.00 0.00 0.00 86 953.0
20260507151104 78 0 0.0 0.0 0.00 0.00 0.00 94 953.0
20260507150039 80 0 0.0 0.0 0.00 0.00 0.00 86 953.0
20260507145014 79 0 0.0 0.0 0.00 0.00 0.00 90 953.0
20260507143947 77 0 0.0 0.0 0.00 0.00 0.00 98 952.0
20260507142922 76 0 0.0 0.0 0.00 0.00 0.00 99 952.0
20260507141857 76 0 0.0 0.0 0.00 0.00 0.00 99 952.0
20260507140833 74 0 0.0 0.0 0.00 0.00 0.00 99 952.0
20260507135808 74 0 0.0 0.0 0.00 0.00 0.00 99 952.0
20260507134744 77 0 0.0 0.0 0.00 0.00 0.00 83 952.0
20260507133720 78 0 0.0 0.0 0.00 0.00 0.00 68 952.0
20260507132655 81 0 0.0 0.0 0.00 0.00 0.00 62 951.0
20260507131630 85 0 0.0 0.0 0.00 0.00 0.00 59 951.0